GFSSW_850_rhum_198.txt.gz
RH
61 75 80 74 68 69 77 97 98 89 83 69 51 42 44 45 49 52 57 36 24 25 21 17 17 24 24 30 25 28 35 24 19 19 26 20 25 24 24 23 23 25 30 37 39
72 90 83 81 78 77 63 85 88 73 56 53 55 52 50 48 46 50 40 29 23 25 25 28 24 25 26 24 27 28 35 33 26 25 25 21 22 25 23 22 24 28 28 25 29
84 90 87 83 66 89 79 73 55 60 63 57 53 59 50 45 43 38 35 30 26 21 21 24 26 23 19 20 22 23 33 26 29 32 21 24 26 24 23 25 20 24 29 26 23
93 83 66 57 61 68 62 57 73 60 52 45 44 53 46 37 39 32 32 28 26 20 21 24 26 20 18 24 20 26 25 25 25 25 24 27 22 22 22 28 24 22 24 23 23
72 64 59 61 63 66 70 71 59 48 44 38 41 48 37 40 32 28 28 28 30 17 20 27 24 18 18 20 20 24 23 22 22 21 20 21 22 21 20 24 24 20 17 21 24
59 60 62 62 63 62 62 56 46 39 36 36 38 44 37 36 27 26 25 26 22 15 18 26 28 22 20 21 26 23 22 20 20 20 22 21 17 17 16 20 20 20 22 24 29
59 62 61 60 59 56 52 45 37 35 33 32 35 38 37 36 27 24 25 24 24 18 17 21 23 24 21 26 21 21 25 22 20 20 20 21 20 24 17 19 21 22 23 28 33
53 56 57 56 48 44 39 36 35 31 28 28 28 34 32 28 27 26 24 22 19 17 15 19 18 21 23 21 19 21 19 28 23 20 22 20 22 20 18 21 20 20 22 28 35
37 42 42 41 38 34 34 34 30 26 24 23 28 33 28 37 34 26 27 23 20 17 16 15 15 26 27 31 25 19 29 20 28 21 20 21 24 18 18 20 19 20 21 26 33
31 33 33 33 32 31 30 26 28 26 26 28 28 33 26 28 26 27 24 26 22 16 19 14 23 35 31 85 82 30 19 15 19 27 20 22 23 17 17 19 18 17 21 22 29
28 29 28 28 26 24 26 26 25 24 33 49 40 34 32 27 21 19 21 24 26 21 39 25 51 62 42 33 30 26 23 24 22 25 26 22 21 16 12 17 18 17 16 20 25
23 23 23 25 25 25 22 21 29 30 29 32 42 45 53 27 29 19 20 24 30 32 27 51 48 39 35 32 30 27 24 24 21 27 26 23 26 18 14 14 20 19 16 19 24
19 20 21 20 20 19 20 21 22 26 25 23 23 24 24 26 30 24 20 22 27 33 35 53 44 34 30 37 34 30 36 41 38 36 27 28 27 18 24 24 24 19 16 18 23
14 16 17 17 21 17 18 21 16 19 69 29 26 25 22 21 29 25 20 25 28 34 39 40 36 34 32 37 40 44 46 40 44 58 72 24 45 17 28 30 26 24 18 22 26
12 14 11 10 10 12 13 14 25 27 74 28 28 22 26 32 32 27 24 27 32 34 41 54 39 38 36 51 42 58 43 43 48 61 55 36 68 42 18 22 29 28 29 28 30
10 10 11 11 10 11 12 18 28 87 58 38 27 27 30 24 27 26 30 28 29 33 40 46 44 48 50 44 46 46 50 39 50 71 82 39 48 61 25 21 22 25 28 29 30
9 9 8 8 11 9 13 27 88 70 21 42 38 25 28 27 26 26 27 32 44 49 56 43 49 50 48 50 44 45 78 71 74 79 73 80 62 49 25 25 24 26 26 28 29
17 12 14 16 14 13 20 54 56 21 30 28 30 26 34 30 27 28 29 43 26 31 54 80 78 58 49 54 55 60 84 80 57 83 81 60 56 51 27 26 28 31 30 27 28
20 20 26 21 12 12 39 81 50 38 26 29 28 48 30 28 36 37 28 44 31 27 43 40 62 54 53 49 56 61 80 50 71 70 78 70 52 33 29 26 30 36 30 28 29
26 22 31 24 8 24 56 42 37 32 28 28 30 25 52 32 51 31 33 29 34 31 28 33 72 44 61 54 53 55 43 76 96 57 83 74 46 59 40 34 29 40 34 31 31
24 39 23 21 21 27 77 40 34 36 46 39 24 22 19 27 26 29 38 39 31 32 28 22 45 55 53 68 72 60 74 62 64 74 90 87 76 97 67 53 37 37 34 33 31
35 57 19 20 46 32 50 38 33 36 43 34 31 23 20 22 26 34 35 35 30 28 27 29 39 64 48 42 40 43 54 48 85 71 82 87 71 62 54 54 38 31 29 32 34
46 37 19 25 77 47 35 35 38 36 34 28 26 27 25 23 28 28 33 36 35 31 31 33 49 69 53 51 43 51 46 44 35 56 84 84 74 39 34 38 35 36 32 35 36
41 76 38 25 28 29 27 27 36 37 36 31 30 29 28 27 25 31 33 45 38 36 38 38 39 45 60 47 58 54 50 48 47 83 77 75 57 45 43 47 40 36 36 36 38
26 53 32 61 39 31 33 28 30 41 43 35 37 35 30 28 28 35 32 51 48 45 44 43 56 41 41 39 36 46 48 53 56 47 66 34 67 48 51 62 40 29 34 38 40
43 46 39 33 35 33 45 41 33 32 40 40 43 34 36 32 29 33 35 44 50 55 56 46 60 45 52 43 45 49 47 43 47 48 44 40 43 29 27 28 29 37 44 43 39
24 38 41 36 34 32 33 29 32 34 32 32 37 35 40 37 33 32 29 33 39 56 62 62 64 57 76 46 49 69 53 45 43 40 38 53 40 29 32 31 30 30 33 40 35

GFSSW_850_rhum_201.txt.gz
RH
70 83 80 73 76 76 94 92 89 90 85 78 62 60 47 43 50 51 50 50 40 27 22 22 19 19 30 32 29 26 37 35 31 29 28 23 25 24 24 23 24 26 37 47 51
74 82 78 86 74 74 83 82 70 90 81 68 62 52 50 58 54 53 41 36 33 34 33 31 24 24 28 28 24 31 45 32 31 33 27 25 24 24 23 24 27 27 32 39 39
86 93 86 78 72 92 80 68 65 68 63 67 57 60 55 56 48 37 34 32 32 33 31 31 26 25 24 24 26 27 39 29 29 30 25 27 26 24 26 28 24 24 26 25 26
82 70 64 67 74 72 65 55 56 67 57 52 47 54 49 50 46 32 30 30 34 37 32 25 23 22 23 26 23 32 27 29 24 24 26 27 25 23 23 25 23 24 27 26 21
61 61 63 66 69 70 72 69 60 52 50 42 45 49 45 41 37 30 31 30 36 38 29 26 26 22 22 24 23 29 24 23 22 21 20 23 23 22 21 25 24 24 24 22 22
58 62 59 59 60 62 63 54 46 42 38 38 44 44 39 43 28 28 26 27 29 29 20 21 23 24 22 25 28 25 22 22 20 21 20 21 20 19 16 22 23 22 18 18 22
56 54 53 53 52 51 48 44 38 37 34 37 42 40 41 40 28 28 25 24 24 22 15 12 19 23 23 24 22 21 26 22 22 21 22 20 19 25 17 20 19 18 20 24 27
46 49 45 44 41 39 36 36 36 32 31 32 35 39 34 30 28 28 24 20 20 17 15 16 16 21 23 21 21 22 27 30 24 21 21 19 17 20 18 20 20 21 22 27 28
36 38 37 36 34 34 34 31 30 28 27 26 32 36 34 41 29 25 24 20 16 16 15 16 13 23 26 32 37 24 30 27 28 22 21 22 21 20 20 20 20 20 21 26 29
31 31 31 31 30 28 25 27 28 27 27 29 32 33 35 36 27 23 24 24 17 19 21 17 25 50 50 76 62 30 26 22 26 27 23 23 28 24 18 19 17 18 21 25 29
25 25 26 27 25 23 26 28 31 30 43 41 41 33 38 35 26 22 29 29 21 18 28 26 53 62 42 37 29 26 23 24 29 26 24 23 26 21 16 18 22 19 21 22 27
21 21 23 24 23 23 23 22 30 39 27 34 32 48 30 28 25 20 28 29 28 32 32 54 53 40 36 32 31 28 25 33 28 30 30 28 28 21 20 17 19 20 19 19 27
18 20 19 18 20 20 20 26 28 27 24 24 25 22 27 23 26 21 22 25 32 36 46 63 45 36 31 40 38 49 36 43 38 43 34 31 27 22 25 25 23 20 18 18 26
14 18 18 17 22 18 19 18 20 23 66 32 26 23 22 22 26 24 23 26 28 40 42 47 37 35 37 46 47 42 50 45 53 44 33 30 36 21 23 30 28 24 19 19 32
12 13 12 11 12 17 14 17 20 22 59 29 28 21 26 28 30 25 29 28 33 40 38 49 48 47 57 54 47 62 46 47 50 63 59 35 61 30 24 22 33 30 27 25 32
9 10 10 11 12 11 12 16 27 77 48 46 27 26 29 25 26 25 23 26 30 36 45 50 44 55 51 47 50 47 50 58 74 83 66 38 50 50 31 22 26 31 28 29 30
9 8 9 10 14 18 18 28 75 60 24 39 36 27 29 27 28 27 30 35 41 42 47 51 56 51 50 54 46 59 61 58 57 66 46 78 64 39 25 25 25 30 29 28 29
14 11 18 14 12 14 22 52 43 24 31 28 31 28 34 31 27 32 30 35 29 38 63 66 44 57 52 55 64 68 61 64 22 70 78 67 53 40 29 26 25 28 30 30 31
22 24 27 22 13 14 37 73 55 36 28 31 31 42 33 28 40 35 32 57 33 32 43 60 46 57 58 52 51 51 53 50 67 86 72 62 48 38 31 28 29 29 31 31 30
26 26 29 17 20 34 48 51 39 35 36 30 30 29 52 33 45 34 33 34 34 34 33 36 53 54 62 56 54 57 51 41 79 20 67 74 59 58 46 38 33 36 37 31 29
28 39 22 21 28 23 69 41 42 36 44 35 30 23 22 26 26 30 35 38 32 34 29 24 39 56 59 77 68 62 71 64 68 82 71 81 70 66 58 47 38 32 29 30 30
37 44 20 29 33 49 46 39 33 39 39 36 31 23 22 25 28 30 32 32 31 30 30 26 48 72 50 46 51 52 52 46 66 51 85 88 74 45 71 47 41 27 22 31 30
30 34 22 15 58 51 36 36 38 38 37 31 29 28 26 24 25 32 34 36 32 31 34 33 41 68 56 58 49 49 50 52 52 74 82 74 70 50 37 40 38 36 30 31 33
33 60 25 23 31 35 31 31 38 36 37 31 32 30 30 30 26 35 40 44 36 37 39 34 46 46 51 46 66 55 53 56 49 80 72 76 50 35 42 44 35 28 28 31 31
25 48 29 56 37 36 36 31 32 35 41 35 37 36 33 30 30 35 39 54 48 46 42 46 53 50 48 47 49 52 49 59 63 47 57 34 62 39 42 61 40 30 30 32 32
31 33 33 40 34 35 42 37 34 34 37 40 40 37 38 34 33 35 37 46 50 60 54 53 52 53 57 48 51 52 50 50 50 45 45 42 46 31 30 30 32 28 28 32 35
33 45 47 41 41 35 40 34 35 33 33 35 39 40 41 42 36 37 35 34 39 60 65 64 66 66 77 50 52 66 55 46 51 52 48 56 41 34 36 36 32 27 28 30 30

GFSSW_850_rhum_207.txt.gz
RH
72 75 74 79 80 79 66 81 76 79 82 75 73 65 64 63 60 50 44 39 34 42 38 39 26 27 32 31 32 30 41 39 30 36 28 25 26 26 24 24 25 30 37 43 64
77 83 77 62 60 70 74 95 98 96 93 88 82 75 69 61 51 44 43 36 40 48 44 28 33 32 36 33 33 33 41 33 30 32 32 27 25 25 24 27 27 30 36 42 60
75 68 59 62 64 84 94 98 98 97 79 76 68 64 57 52 49 43 37 48 48 44 37 36 38 38 33 34 32 36 32 34 31 31 30 29 28 25 26 29 25 25 34 55 61
58 61 62 67 68 69 64 75 84 84 73 62 59 53 55 54 58 42 43 38 36 35 36 45 41 37 32 38 31 31 31 32 28 26 30 30 26 26 26 23 22 23 25 37 52
58 62 63 65 66 69 66 65 68 67 59 58 46 49 52 54 47 34 31 30 32 32 36 44 41 31 35 30 29 29 29 26 24 24 26 26 26 28 24 23 23 23 26 33 40
56 58 60 60 61 63 59 54 51 50 46 42 43 50 49 49 37 31 32 31 34 31 37 43 34 26 27 30 28 29 26 24 22 23 22 24 23 23 19 21 23 24 26 27 26
50 52 52 52 52 51 45 41 41 40 38 39 47 50 46 42 33 34 33 31 34 40 40 37 32 28 25 33 24 24 27 24 23 22 23 20 19 25 20 21 24 26 27 27 26
39 41 40 39 38 38 36 37 35 34 36 40 44 42 53 38 33 33 29 28 31 33 34 34 30 26 25 24 24 28 29 30 26 24 22 18 20 13 18 20 24 24 24 23 22
35 34 32 32 33 34 30 32 30 31 36 39 38 41 42 37 34 32 30 26 26 28 28 28 28 28 26 44 38 32 29 28 29 26 24 20 18 15 22 23 23 23 23 21 20
28 29 28 31 28 27 34 29 27 30 32 35 37 44 54 40 32 36 36 28 26 26 26 28 30 44 54 59 52 32 26 26 27 29 24 24 29 24 19 22 20 19 20 21 21
22 24 26 29 27 25 28 32 35 38 40 43 40 59 59 50 31 42 46 39 29 24 31 39 44 56 38 43 32 28 24 21 30 30 27 28 28 22 19 18 19 19 20 21 20
16 20 22 22 23 22 26 27 33 38 30 48 39 37 47 48 31 46 44 39 31 36 38 50 46 40 38 32 31 24 23 27 29 33 30 30 30 24 22 20 17 18 18 17 19
16 18 18 19 22 21 24 26 40 33 30 27 29 29 56 46 34 54 54 42 44 46 49 51 42 39 34 44 44 50 31 35 34 37 32 33 24 17 16 25 24 23 22 20 19
14 16 14 16 21 26 30 27 24 29 69 32 30 26 25 28 30 31 32 39 50 42 46 51 42 36 42 43 46 32 49 42 36 36 33 33 36 17 12 20 26 23 22 20 20
11 12 12 10 12 18 20 20 20 23 53 30 25 25 26 34 28 23 30 33 58 52 37 49 48 49 48 52 51 45 43 45 47 63 52 32 62 24 23 18 20 23 24 21 19
14 11 11 12 12 10 11 14 22 70 52 38 28 28 28 26 26 26 27 31 35 44 50 52 50 56 51 50 53 50 51 63 72 70 55 55 44 36 17 16 21 24 23 23 19
22 10 13 14 16 15 13 22 72 63 27 42 38 30 28 32 25 33 29 35 44 42 33 54 59 54 52 49 49 43 54 59 55 61 49 73 71 33 20 25 27 24 22 26 25
20 22 30 27 19 19 22 46 40 30 32 28 32 31 30 30 30 36 30 39 34 53 56 53 48 55 58 54 49 63 56 66 32 41 55 64 52 38 29 27 27 23 28 26 29
21 27 30 22 17 19 39 68 42 35 30 31 30 36 31 28 35 33 39 45 34 36 32 49 49 59 62 58 52 43 43 46 72 91 68 59 36 29 32 32 30 27 26 25 27
25 24 31 25 32 30 47 49 33 39 37 31 26 30 43 33 33 30 30 33 31 34 36 39 52 56 63 55 51 46 50 47 72 18 31 54 48 55 39 44 38 36 29 22 20
29 33 41 37 40 30 61 39 39 37 44 38 26 24 28 25 27 29 26 34 33 31 26 28 33 49 60 63 56 63 69 69 59 67 57 61 61 64 68 47 57 44 26 20 18
34 30 40 40 33 48 47 37 35 33 38 37 32 26 24 25 24 30 25 23 33 26 19 31 30 43 32 48 49 46 44 50 64 47 84 81 69 42 51 54 41 33 27 26 26
30 36 38 30 46 39 40 32 39 37 39 32 30 30 28 26 24 32 36 40 34 30 31 28 31 53 41 53 52 58 58 44 63 73 84 67 67 49 41 38 34 32 27 26 27
31 41 27 28 35 36 34 33 33 37 35 33 33 31 29 29 28 38 42 43 37 38 42 33 42 35 34 25 61 56 54 60 46 80 71 73 58 43 44 51 40 31 30 33 34
24 48 42 42 35 39 39 32 34 32 38 36 34 30 29 28 31 32 42 54 47 46 45 42 42 52 50 48 59 51 46 62 68 50 59 42 67 38 46 56 42 42 38 39 37
27 33 33 46 42 36 43 39 33 35 32 34 31 38 37 33 28 28 37 45 41 62 48 58 40 58 58 51 58 56 56 53 55 48 54 44 49 37 37 39 44 46 46 46 44
31 34 44 41 49 38 37 36 37 35 34 36 37 39 43 40 32 31 33 36 39 57 58 63 56 69 73 61 59 67 58 49 55 56 50 58 47 43 47 45 48 55 52 51 47

GFSSW_850_rhum_210.txt.gz
RH
72 77 83 80 64 68 76 68 72 68 85 85 79 74 69 63 62 62 59 56 44 41 42 37 36 28 36 33 32 30 42 33 26 34 27 26 26 26 25 25 31 34 36 42 66
92 86 73 62 59 64 78 70 90 91 93 92 87 85 76 66 62 58 47 50 41 40 41 43 34 32 38 35 34 34 43 31 28 32 30 27 26 26 25 26 27 28 31 37 54
63 63 62 64 70 79 84 89 97 97 96 84 79 71 68 63 57 52 44 44 44 50 48 40 33 35 40 38 35 36 32 28 31 32 31 30 28 26 27 30 24 23 25 38 59
57 58 60 66 69 71 70 72 84 88 75 71 64 59 55 55 64 46 48 45 51 45 42 38 47 40 38 43 33 30 32 33 29 27 30 32 28 27 27 23 22 22 24 36 55
53 55 58 63 64 68 70 67 68 73 70 61 56 47 52 58 53 38 34 34 34 35 36 39 46 38 36 35 32 30 33 29 26 25 28 27 28 29 25 23 24 22 24 35 52
50 52 54 56 59 61 58 57 50 51 50 47 44 46 54 57 44 33 32 32 32 33 33 40 42 33 31 36 31 31 28 25 23 24 23 25 26 24 21 21 23 24 23 31 41
41 45 46 46 45 46 45 47 41 39 39 40 43 49 51 45 39 35 35 34 34 35 36 40 41 34 31 36 26 25 27 25 24 23 23 21 24 26 22 19 23 24 26 31 32
37 38 37 36 35 36 37 38 37 35 36 40 47 50 60 40 39 36 32 33 34 39 42 40 40 34 32 26 26 29 29 29 26 24 23 19 25 14 18 20 21 24 27 27 26
30 32 31 31 33 33 31 33 35 33 37 42 44 63 52 47 36 40 38 30 32 35 35 35 33 31 29 40 46 33 34 29 27 28 25 20 22 15 22 22 22 22 23 24 24
23 25 27 31 27 28 35 30 32 32 34 36 50 52 54 48 36 44 44 32 27 29 32 31 32 46 56 61 57 38 27 27 27 30 25 25 30 26 19 23 22 20 21 22 22
19 20 24 27 27 26 29 34 38 39 43 40 41 52 57 48 40 48 51 32 27 26 38 40 44 56 41 42 34 31 25 25 31 34 28 28 31 25 21 19 18 16 16 17 19
15 19 22 22 23 22 26 29 32 40 34 39 39 41 54 35 42 44 48 41 33 43 38 48 42 41 42 35 28 25 25 26 32 36 28 35 31 24 22 20 15 15 15 14 15
15 18 18 18 24 23 25 25 36 32 31 27 29 28 47 34 44 53 54 54 47 44 48 45 42 39 35 47 40 46 28 34 33 30 34 31 23 19 15 22 22 22 20 19 18
13 14 14 14 23 32 32 33 28 30 70 38 29 27 26 33 41 50 60 59 49 42 48 50 45 39 39 43 49 33 48 39 30 36 32 34 39 18 13 16 19 16 19 20 19
12 12 12 13 15 22 24 23 21 32 67 30 26 27 27 34 31 37 66 49 57 49 45 52 50 45 47 52 53 47 46 47 46 62 45 32 57 24 19 15 14 20 22 22 21
21 14 11 11 12 13 14 17 24 68 50 37 29 31 29 27 28 32 37 42 43 50 53 55 51 57 50 55 55 56 44 61 66 65 55 42 40 36 16 13 19 22 21 22 21
27 12 16 15 14 16 13 22 69 80 28 42 36 31 29 32 27 32 29 34 69 54 42 47 58 56 54 46 45 38 55 62 60 66 52 74 69 32 18 19 25 27 24 24 26
22 26 28 23 18 18 17 49 46 28 31 29 33 31 29 28 34 36 30 38 34 57 54 56 52 58 63 56 44 54 60 68 39 46 59 66 56 40 29 26 28 30 31 29 28
22 29 33 21 18 20 36 69 40 30 33 31 30 33 29 28 36 33 39 44 34 38 31 43 41 59 64 58 52 44 51 43 71 90 64 59 34 24 31 43 37 30 24 22 20
30 26 34 29 25 28 45 46 35 39 38 32 27 29 40 32 33 27 32 34 31 34 37 42 49 59 64 53 53 43 48 47 74 18 30 48 40 53 46 55 50 41 32 27 25
30 37 45 38 38 37 57 38 41 37 43 36 26 24 28 24 27 28 28 32 33 32 26 29 34 46 58 63 56 61 68 65 60 65 54 55 56 63 68 57 42 38 32 32 29
42 32 50 41 36 51 43 38 35 35 40 37 31 25 24 24 23 29 25 25 33 26 19 29 30 55 37 49 47 47 44 46 63 44 85 80 63 49 50 50 38 37 34 33 31
32 40 44 42 43 39 41 34 40 39 40 34 33 30 28 26 26 29 35 38 34 29 30 33 28 53 43 57 56 62 53 48 61 71 84 70 65 49 42 43 41 44 39 38 36
28 42 32 34 33 35 35 33 33 39 36 34 32 32 28 28 29 36 41 44 39 36 44 31 37 28 31 24 57 56 61 56 43 76 66 72 54 41 42 52 52 43 43 42 42
25 40 39 41 35 40 38 36 36 37 38 36 38 31 30 32 33 32 41 50 48 51 45 41 33 45 42 44 56 49 47 65 61 48 52 46 62 40 43 56 50 51 50 48 46
31 34 38 45 47 40 43 45 36 35 37 35 33 38 37 30 28 35 44 50 44 59 43 60 43 47 54 49 53 59 57 53 58 50 48 43 49 44 44 50 56 59 58 60 58
39 41 50 38 54 41 38 35 39 36 36 32 34 42 44 40 30 29 30 35 40 59 58 62 55 62 65 61 59 68 60 51 54 57 51 57 47 48 50 58 67 72 70 70 64